{"data":{"norad_id":57530,"intl_designator":"2023-115K","name":"STARLINK-30270","alt_names":[],"object_type":"PAYLOAD","status":"ACTIVE","operator":null,"country":"US","launch_date":"2023-08-08","launch_site_code":"AFWTR","launch_vehicle":null,"mission":null,"orbit_class":"UNKNOWN","rcs_meters":null,"size_class":null,"mass_kg":null,"dimensions":null,"purposes":["comms"],"wikipedia_slug":null,"has_3d_model":false,"image_url":null,"decayed_at":null,"tle_current":{"epoch":"2026-05-25T02:51:35.279712Z","epoch_age_seconds":68265,"freshness":"FRESH","line1":"1 57530U 23115K   26145.11915833 -.00001857  00000+0 -57930-4 0  9991","line2":"2 57530  43.0033 289.6885 0002122 265.9394  94.1215 15.27587218154048","mean_motion":15.27587218,"eccentricity":0.0002122,"inclination_deg":43.0033,"raan_deg":289.6885,"arg_perigee_deg":265.9394,"mean_anomaly_deg":94.1215,"bstar":-5.793e-5,"rev_number":15404,"period_min":94.266303293983,"perigee_km":481.57154373284,"apogee_km":484.48342193935,"semimajor_km":6861.1644828361,"source":"CELESTRAK","updated_at":"2026-05-25T13:38:18.333697Z"}}}